Weather History for KBTA - April, 2013

Change the Weather History Date:

Monday, April 22, 2013

  Actual Average (KOMA) Record (KOMA)
Temperature  
Mean Temperature 41 °F 54 °F  
Max Temperature 50 °F 66 °F 96 °F (1989)
Min Temperature 32 °F 42 °F 23 °F (1992)
Degree Days  
Heating Degree Days 24 11  
Month to date heating degree days 333  
Since 1 July heating degree days 5922  
Cooling Degree Days 0 1  
Month to date cooling degree days 6  
Year to date cooling degree days 7  
Moisture  
Dew Point 40 °F    
Average Humidity 93    
Maximum Humidity 97    
Minimum Humidity 85    
Precipitation  
Precipitation 0.89 in 0.11 in 1.25 in (2013)
Month to date precipitation 2.01  
Year to date precipitation 5.57  
Snow  
Snow 0.00 in 0.00 in - ()
Month to date snowfall 0.9  
Since 1 July snowfall 26.3  
Snow Depth -    
Sea Level Pressure  
Sea Level Pressure 30.05 in    
Wind  
Wind Speed 12 mph (North)    
Max Wind Speed 29 mph    
Max Gust Speed 36 mph    
Visibility 6 miles    
Events Fog , Rain , Thunderstorm    
T = Trace of Precipitation, MM = Missing Value Source: NWS Daily Summary

Daily Weather History Graph

Daily Weather History Graph

Search for Another Location

Airport or City:

Trip Planner

Search our weather history database for the weather conditions in past years. The results will help you decide how hot, cold, wet, or windy it might be!

Date:

Astronomy

Apr. 22, 2013 Rise Set
Actual Time 6:33 AM CDT 8:12 PM CDT
Civil Twilight 6:04 AM CDT 8:42 PM CDT
Nautical Twilight 5:29 AM CDT 9:17 PM CDT
Astronomical Twilight 4:51 AM CDT 9:55 PM CDT
Moon 5:00 PM CDT (4/22) 4:31 AM CDT (4/22)
Length of Visible Light 14h 37m
Length of Day
13h 38m
Waxing Gibbous, 88% of the Moon is Illuminated
Apr 22
Waxing Gibbous
Apr 25
Full
May 2
Last Quarter
May 9
New
May 17
First Quarter

Hourly Weather History & Observations

Time (CDT) Temp. Windchill Dew Point Humidity Pressure Visibility Wind Dir Wind Speed Gust Speed Precip Events Conditions
12:15 AM 49.3 °F - 46.6 °F 90% 30.11 in 10.0 mi North 10.4 mph - N/A   Overcast
12:35 AM 47.7 °F - 45.1 °F 91% 30.11 in 10.0 mi North 9.2 mph - N/A   Overcast
12:55 AM 46.6 °F - 44.6 °F 93% 30.11 in 7.0 mi North 9.2 mph - N/A   Overcast
1:15 AM 45.7 °F 40.2 °F 43.7 °F 93% 30.11 in 7.0 mi North 11.5 mph - N/A Rain Light Rain
1:35 AM 45.0 °F 39.3 °F 42.8 °F 92% 30.10 in 7.0 mi North 11.5 mph - N/A Rain Light Rain
1:55 AM 44.4 °F 37.9 °F 42.1 °F 91% 30.10 in 7.0 mi North 13.8 mph - N/A Rain Light Rain
2:15 AM 43.9 °F 37.2 °F 41.9 °F 93% 30.09 in 7.0 mi North 13.8 mph - N/A   Overcast
2:35 AM 43.7 °F 36.9 °F 41.9 °F 93% 30.09 in 7.0 mi North 13.8 mph - N/A Rain Light Rain
2:55 AM 43.7 °F 37.7 °F 41.9 °F 93% 30.09 in 4.0 mi NNW 11.5 mph - 0.03 in Rain Rain
3:15 AM 43.2 °F 37.0 °F 41.4 °F 93% 30.09 in 5.0 mi North 11.5 mph - 0.04 in Rain Heavy Rain
3:35 AM 42.8 °F 36.2 °F 41.0 °F 93% 30.07 in 4.0 mi NNE 12.7 mph - 0.09 in Rain Light Rain
3:55 AM 42.8 °F 36.2 °F 41.2 °F 94% 30.07 in 4.0 mi NNE 12.7 mph - 0.09 in   Overcast
4:15 AM 42.8 °F 36.2 °F 41.0 °F 93% 30.05 in 4.0 mi NNE 12.7 mph - N/A   Overcast
4:35 AM 42.8 °F 37.0 °F 41.0 °F 93% 30.05 in 3.0 mi NNE 10.4 mph - N/A   Overcast
4:55 AM 42.3 °F 35.9 °F 41.0 °F 95% 30.04 in 3.0 mi NNE 11.5 mph - N/A   Overcast
5:15 AM 42.3 °F 35.9 °F 41.0 °F 95% 30.04 in 2.5 mi NNE 11.5 mph - N/A   Overcast
5:35 AM 42.3 °F 36.8 °F 41.0 °F 95% 30.03 in 2.0 mi NNE 9.2 mph - N/A   Overcast
5:55 AM 42.3 °F 38.6 °F 41.0 °F 95% 30.03 in 1.2 mi NE 5.8 mph - N/A   Overcast
6:15 AM 42.3 °F 37.3 °F 41.0 °F 95% 30.02 in 1.0 mi NE 8.1 mph - N/A   Overcast
6:35 AM 42.8 °F 38.0 °F 41.4 °F 95% 30.02 in 0.5 mi NNE 8.1 mph - N/A Fog Fog
6:55 AM 42.8 °F 38.0 °F 41.5 °F 95% 30.03 in 0.5 mi NNE 8.1 mph - N/A Fog Fog
7:15 AM 43.0 °F 40.3 °F 41.7 °F 95% 30.03 in 0.2 mi North 4.6 mph - N/A Fog Fog
7:35 AM 43.0 °F 39.5 °F 41.9 °F 96% 30.05 in 0.2 mi North 5.8 mph - N/A Fog , Thunderstorm Fog
7:55 AM 43.3 °F - 42.1 °F 95% 30.06 in 0.2 mi Calm Calm - N/A Rain , Thunderstorm Light Thunderstorms and Rain
8:15 AM 43.7 °F 42.1 °F 42.8 °F 97% 30.07 in 0.5 mi WNW 3.5 mph - 0.04 in Rain Rain
8:35 AM 43.7 °F - 42.4 °F 95% 30.07 in 0.2 mi Calm Calm - 0.10 in Rain Rain
8:55 AM 43.9 °F 42.3 °F 42.8 °F 96% 30.06 in 0.5 mi ENE 3.5 mph - 0.19 in   Overcast
9:15 AM 44.6 °F 43.1 °F 43.5 °F 96% 30.05 in 1.0 mi East 3.5 mph - 0.08 in   Overcast
9:35 AM 45.0 °F 41.8 °F 43.9 °F 96% 30.04 in 1.8 mi ENE 5.8 mph - 0.10 in Rain Light Rain
9:55 AM 45.3 °F 43.0 °F 44.2 °F 96% 30.04 in 1.5 mi ESE 4.6 mph - 0.12 in Rain Rain
10:15 AM 45.9 °F 42.3 °F 44.8 °F 96% 30.03 in 1.5 mi East 6.9 mph - 0.02 in Rain Rain
10:35 AM 46.4 °F 42.9 °F 45.5 °F 97% 30.01 in 1.2 mi ENE 6.9 mph - 0.05 in Rain Light Rain
10:55 AM 46.9 °F - 45.9 °F 96% 29.99 in 1.8 mi ENE 11.5 mph - 0.06 in Rain Light Rain
11:15 AM 46.8 °F - 45.7 °F 96% 30.00 in 1.8 mi East 8.1 mph - 0.01 in Rain Rain
11:35 AM 47.7 °F - 46.6 °F 96% 30.00 in 2.0 mi East 4.6 mph - 0.01 in   Drizzle
11:55 AM 48.2 °F - 47.3 °F 97% 29.99 in 3.0 mi ESE 5.8 mph - 0.02 in Rain Light Rain
12:15 PM 48.9 °F - 47.7 °F 95% 29.98 in 5.0 mi East 6.9 mph - 0.01 in Rain Light Rain
12:35 PM 49.6 °F - 48.6 °F 96% 29.98 in 5.0 mi East 5.8 mph - 0.01 in   Light Drizzle
12:55 PM 50.2 °F - 49.1 °F 96% 29.98 in 10.0 mi East 4.6 mph - 0.01 in   Overcast
1:15 PM 50.4 °F - 49.1 °F 95% 29.97 in 10.0 mi East 4.6 mph - N/A Rain Light Rain
1:35 PM 50.5 °F - 48.2 °F 92% 29.97 in 10.0 mi ESE 3.5 mph - 0.01 in Rain Rain
1:55 PM 50.0 °F - 47.7 °F 92% 29.97 in 7.0 mi Calm Calm - 0.02 in Rain Rain
2:15 PM 47.1 °F - 45.5 °F 94% 29.96 in 1.5 mi North 10.4 mph - 0.09 in Rain Heavy Rain
2:35 PM 45.7 °F 41.0 °F 44.2 °F 95% 29.95 in 2.5 mi North 9.2 mph - 0.12 in Rain Rain
2:55 PM 44.8 °F 38.7 °F 43.3 °F 95% 29.96 in 3.0 mi North 12.7 mph - 0.12 in Rain Light Rain
3:15 PM 43.7 °F 37.3 °F 42.1 °F 94% 29.96 in 4.0 mi North 12.7 mph - 0.03 in Rain Rain
3:35 PM 42.8 °F 35.8 °F 41.2 °F 94% 29.97 in 7.0 mi NNW 13.8 mph - 0.07 in Rain Heavy Rain
3:55 PM 40.3 °F 31.3 °F 38.8 °F 95% 29.98 in 1.5 mi NW 18.4 mph 26.5 mph 0.14 in Rain Light Rain
4:15 PM 39.7 °F 30.3 °F 37.9 °F 93% 29.99 in 5.0 mi NNW 19.6 mph 24.2 mph 0.03 in Rain Rain
4:35 PM 38.7 °F 29.1 °F 36.5 °F 92% 29.99 in 3.0 mi NNW 18.4 mph 27.6 mph 0.05 in   Overcast
4:55 PM 38.1 °F 28.8 °F 35.8 °F 91% 30.00 in 7.0 mi NNW 17.3 mph 25.3 mph 0.07 in Rain Light Rain
5:15 PM 36.7 °F 26.6 °F 34.3 °F 91% 30.00 in 7.0 mi NNW 18.4 mph 32.2 mph 0.01 in Rain Light Rain
5:35 PM 36.0 °F 24.2 °F 33.4 °F 91% 30.01 in 7.0 mi NNW 24.2 mph 33.4 mph 0.02 in Rain Light Rain
5:55 PM 35.2 °F 23.8 °F 32.4 °F 89% 30.04 in 10.0 mi NNW 21.9 mph 32.2 mph 0.02 in   Overcast
6:15 PM 34.7 °F 22.2 °F 32.0 °F 90% 30.05 in 10.0 mi NNW 25.3 mph 31.1 mph N/A Rain Light Rain
6:35 PM 34.0 °F 21.5 °F 32.0 °F 92% 30.07 in 7.0 mi NNW 24.2 mph 31.1 mph N/A   Overcast
6:55 PM 33.8 °F 22.5 °F 32.0 °F 93% 30.07 in 7.0 mi North 19.6 mph 32.2 mph N/A   Light Drizzle
7:15 PM 33.8 °F 22.2 °F 31.8 °F 92% 30.08 in 10.0 mi NNW 20.7 mph 29.9 mph N/A   Overcast
7:35 PM 33.8 °F 22.2 °F 31.8 °F 92% 30.11 in 10.0 mi NNW 20.7 mph 27.6 mph N/A   Overcast
7:55 PM 33.8 °F 21.9 °F 31.8 °F 92% 30.10 in 10.0 mi NNW 21.9 mph 28.8 mph N/A   Overcast
8:15 PM 33.8 °F 21.0 °F 31.5 °F 91% 30.11 in 10.0 mi North 25.3 mph 32.2 mph N/A   Overcast
8:35 PM 33.6 °F 20.1 °F 30.9 °F 90% 30.12 in 10.0 mi North 28.8 mph 34.5 mph N/A   Overcast
8:55 PM 33.3 °F 21.8 °F 30.2 °F 89% 30.14 in 10.0 mi NNW 19.6 mph 31.1 mph N/A   Overcast
9:15 PM 32.9 °F 21.0 °F 30.4 °F 90% 30.16 in 10.0 mi NNW 20.7 mph 28.8 mph N/A   Overcast
9:35 PM 32.9 °F 20.4 °F 30.2 °F 90% 30.17 in 10.0 mi NNW 23.0 mph 34.5 mph N/A   Overcast
9:55 PM 32.7 °F 19.9 °F 30.0 °F 90% 30.17 in 10.0 mi North 24.2 mph 32.2 mph N/A   Overcast
10:15 PM 32.4 °F 18.9 °F 29.1 °F 88% 30.15 in 10.0 mi NNW 26.5 mph 33.4 mph N/A   Overcast
10:35 PM 32.2 °F 19.4 °F 28.9 °F 88% 30.15 in 10.0 mi North 23.0 mph 29.9 mph N/A   Overcast
10:55 PM 32.0 °F 18.4 °F 28.4 °F 87% 30.14 in 10.0 mi North 26.5 mph 35.7 mph N/A   Overcast
11:15 PM 32.0 °F 18.4 °F 27.9 °F 85% 30.18 in 10.0 mi NNW 26.5 mph 34.5 mph N/A   Overcast
11:35 PM 32.0 °F 18.9 °F 28.0 °F 85% 30.20 in 10.0 mi NNW 24.2 mph 33.4 mph N/A   Overcast
11:55 PM 32.0 °F 18.4 °F 28.0 °F 85% 30.18 in 10.0 mi NNW 26.5 mph 31.1 mph N/A   Overcast